EW9427 Weather Reports


Display with metric or nautical units.
time (UTC)temp
F
wind
direction
speed
MPH
gust
MPH
rain 1hr
in
rain 24hr
in
rain mn
in
humidity
%
barometer
mb
20210306011518 45 180 0.0 3.0 0.00 0.00 0.00 54 1014.0
20210306010024 47 180 0.0 5.0 0.00 0.00 0.00 53 1014.1
20210306004624 46 180 0.0 2.0 0.00 0.00 0.00 59 1014.1
20210306003402 47 180 0.0 3.0 0.00 0.00 0.00 60 1014.4
20210306001703 49 180 1.0 2.0 0.00 0.00 0.00 58 1014.6
20210306000138 50 180 0.0 1.0 0.00 0.00 0.00 59 1014.8
20210305234629 52 180 0.0 2.0 0.00 0.00 0.00 55 1015.0
20210305233121 52 180 2.0 5.0 0.00 0.00 0.00 52 1015.1
20210305231641 52 180 4.0 8.0 0.00 0.00 0.00 48 1015.3
20210305230107 50 182 1.0 5.0 0.00 0.00 0.00 59 1015.5
20210305224617 49 183 4.0 7.0 0.00 0.00 0.00 58 1015.7
20210305223055 47 184 2.0 5.0 0.00 0.00 0.00 61 1015.8
20210305221556 47 184 2.0 4.0 0.00 0.00 0.00 60 1016.0
20210305220106 46 183 1.0 4.0 0.00 0.00 0.00 61 1016.2
20210305214625 46 184 2.0 3.0 0.00 0.00 0.00 61 1016.4
20210305213120 46 183 2.0 6.0 0.00 0.00 0.00 59 1016.4
20210305211606 46 184 2.0 6.0 0.00 0.00 0.00 59 1016.6
20210305210113 47 184 2.0 5.0 0.00 0.00 0.00 57 1016.8
20210305204608 46 184 2.0 5.0 0.00 0.00 0.00 57 1017.1
20210305203105 46 184 4.0 7.0 0.00 0.00 0.00 58 1017.3
20210305201604 46 185 2.0 7.0 0.00 0.00 0.00 60 1017.5
20210305200359 46 188 5.0 7.0 0.00 0.00 0.00 59 1017.9
20210305194523 45 187 3.0 6.0 0.00 0.00 0.00 60 1018.2
20210305193139 44 188 0.0 5.0 0.00 0.00 0.00 64 1018.3
20210305191554 42 188 0.0 5.0 0.00 0.00 0.00 68 1018.5
20210305190028 40 188 1.0 5.0 0.00 0.00 0.00 71 1018.6
20210305184633 40 188 0.0 3.0 0.00 0.00 0.00 70 1018.9
20210305183242 39 188 0.0 1.0 0.00 0.00 0.00 70 1019.1
20210305181811 38 188 0.0 1.0 0.00 0.00 0.00 73 1019.2
20210305180228 37 187 0.0 2.0 0.00 0.00 0.00 73 1019.3
20210305174652 37 188 0.0 3.0 0.00 0.00 0.00 71 1019.3
20210305173127 36 188 0.0 3.0 0.00 0.00 0.00 74 1019.4
20210305171652 35 187 3.0 4.0 0.00 0.00 0.00 76 1019.5
20210305170149 34 188 2.0 5.0 0.00 0.00 0.00 78 1019.6
20210305164558 34 188 0.0 4.0 0.00 0.00 0.00 80 1019.7
20210305163849 33 188 0.0 1.0 0.00 0.00 0.00 84 1019.7
20210305161606 31 188 0.0 0.0 0.00 0.00 0.00 86 1019.8
20210305160046 30 188 0.0 0.0 0.00 0.00 0.00 87 1019.8
20210305154534 28 188 0.0 0.0 0.00 0.00 0.00 89 1019.7
20210305153143 27 188 0.0 0.0 0.00 0.00 0.00 90 1019.7
20210305151525 26 188 0.0 0.0 0.00 0.00 0.00 90 1019.7
20210305150044 25 188 0.0 0.0 0.00 0.00 0.00 89 1019.7
20210305144643 24 188 0.0 0.0 0.00 0.00 0.00 89 1019.8
20210305143202 24 188 0.0 0.0 0.00 0.00 0.00 89 1019.8
20210305141656 23 188 0.0 0.0 0.00 0.00 0.00 89 1019.8
20210305140354 23 188 0.0 0.0 0.00 0.00 0.00 89 1019.9
20210305134634 23 188 0.0 0.0 0.00 0.00 0.00 89 1019.9
20210305133217 23 188 0.0 0.0 0.00 0.00 0.00 90 1020.0
20210305131649 23 188 0.0 0.0 0.00 0.00 0.00 89 1019.9
20210305130436 23 188 0.0 0.0 0.00 0.00 0.00 89 1019.9
20210305124653 23 188 0.0 0.0 0.00 0.00 0.00 89 1019.9
20210305123427 23 188 0.0 0.0 0.00 0.00 0.00 89 1019.9
20210305121710 23 188 0.0 0.0 0.00 0.00 0.00 89 1019.8
20210305120100 23 188 0.0 0.0 0.00 0.00 0.00 89 1020.0
20210305114807 23 188 0.0 0.0 0.00 0.00 0.00 88 1020.1
20210305113155 23 188 0.0 0.0 0.00 0.00 0.00 88 1020.2
20210305111639 24 188 0.0 0.0 0.00 0.00 0.00 89 1020.0
20210305110135 23 188 0.0 0.0 0.00 0.00 0.00 89 1020.0
20210305104602 23 188 0.0 0.0 0.00 0.00 0.00 87 1019.9
20210305103157 24 188 0.0 3.0 0.00 0.00 0.00 88 1020.0
20210305101617 24 188 0.0 4.0 0.00 0.00 0.00 87 1020.0
20210305100200 24 188 0.0 0.0 0.00 0.00 0.00 88 1020.0
20210305094641 24 188 0.0 0.0 0.00 0.00 0.00 87 1020.1
20210305093058 24 188 0.0 0.0 0.00 0.00 0.00 87 1020.1
20210305091618 25 188 0.0 0.0 0.00 0.00 0.00 87 1020.1
20210305090059 25 188 1.0 5.0 0.00 0.00 0.00 87 1020.3
20210305084548 25 187 1.0 4.0 0.00 0.00 0.00 87 1020.1
20210305083129 25 188 1.0 3.0 0.00 0.00 0.00 87 1020.0
20210305081532 26 187 0.0 3.0 0.00 0.00 0.00 87 1020.0
20210305080112 26 188 1.0 4.0 0.00 0.00 0.00 88 1020.0
20210305074543 26 188 0.0 3.0 0.00 0.00 0.00 87 1019.9
20210305073038 26 187 1.0 4.0 0.00 0.00 0.00 87 1019.8
20210305071520 26 188 0.0 3.0 0.00 0.00 0.00 87 1019.9
20210305070123 27 188 1.0 4.0 0.00 0.00 0.00 86 1019.8
20210305064532 27 188 0.0 4.0 0.00 0.00 0.00 87 1019.6
20210305063129 27 187 3.0 5.0 0.00 0.00 0.00 86 1019.7
20210305061532 27 185 2.0 5.0 0.00 0.00 0.00 86 1019.6
20210305060030 28 182 2.0 3.0 0.00 0.00 0.00 86 1019.6
20210305054524 27 182 1.0 5.0 0.00 0.00 0.00 88 1019.7
20210305053022 27 180 0.0 4.0 0.00 0.00 0.00 88 1019.6
20210305051518 27 180 0.0 4.0 0.00 0.00 0.00 87 1019.7
20210305050020 28 180 0.0 5.0 0.00 0.00 0.00 88 1019.7
20210305044523 28 176 2.0 4.0 0.00 0.00 0.00 89 1019.7
20210305043107 28 176 1.0 3.0 0.00 0.00 0.00 88 1019.8
20210305041639 28 176 0.0 3.0 0.00 0.00 0.00 88 1019.6
20210305040417 29 176 2.0 4.0 0.00 0.00 0.00 87 1019.6
20210305034810 29 176 1.0 4.0 0.00 0.00 0.00 87 1019.5
20210305033211 30 175 0.0 3.0 0.00 0.00 0.00 87 1019.4
20210305031622 30 176 0.0 5.0 0.00 0.00 0.00 87 1019.3
20210305030156 30 168 0.0 6.0 0.00 0.00 0.00 87 1019.4
20210305024610 31 157 0.0 3.0 0.00 0.00 0.00 86 1019.2
20210305023248 32 156 1.0 3.0 0.00 0.00 0.00 83 1019.2
20210305021811 34 156 0.0 2.0 0.00 0.00 0.00 83 1019.1
20210305020156 35 157 0.0 2.0 0.00 0.00 0.00 82 1019.0
20210305014910 37 156 0.0 1.0 0.00 0.00 0.00 80 1018.9
20210305013309 39 157 0.0 0.0 0.00 0.00 0.00 79 1018.7